868  
ASUS41 KPHI 142010  
RWRPHI  
 
REGIONAL WEATHER ROUNDUP  
NATIONAL WEATHER SERVICE MOUNT HOLLY NJ  
400 PM EDT SUN JUL 14 2024  
 
NOTE: "FAIR" INDICATES FEW OR NO CLOUDS BELOW 12,000 FEET WITH NO  
SIGNIFICANT WEATHER AND/OR S TO VISIBILITY
.  
 
* = STATION DOES NOT REPORT PRECIPITATION (E.G. RAIN, SNOW, ETC.)  
OR FOG.
 
 
NJZ015>026-142100-  
SOUTHERN NEW JERSEY  
 
CITY SKY/WX TMP DP RH WIND PRES REMARKS
 
POMONA MOSUNNY 89 70 53 S12 29.98F HX 94  
WILDWOOD* MOSUNNY 85 75 72 S12 30.00F HX 93  
MILLVILLE MOSUNNY 90 71 53 S8 29.97F HX 96  
WRIGHTSTOWN DRIZZLE 88 72 58 NW10G20 29.96S HX 94  
LAKEHURST PTSUNNY 85 75 72 E7 29.95S THUNDER HX 93  
MOUNT HOLLY PTSUNNY 90 69 50 SW6 29.97R HX 94  
TRENTON PTSUNNY 79 74 84 NE6 29.99S  
 

 
NJZ001>014-142100-  
NORTHERN NEW JERSEY  
 
CITY SKY/WX TMP DP RH WIND PRES REMARKS
 
SUSSEX MOSUNNY 88 71 57 VRB5 29.98F HX 94  
ANDOVER* N/A 85 72 65 S6 30.00F HX 91  
MORRISTOWN PTSUNNY 82 72 69 SW5 29.99S  
NEWARK PTSUNNY 81 71 71 VRB5 29.98F THUNDER  
TETERBORO PTSUNNY 87 66 49 S9G18 29.95F  
CALDWELL MOSUNNY 87 66 49 VRB5 29.98F  
SOMERVILLE MOSUNNY 81 78 91 E7 29.96F  
ALLAIRE* PTSUNNY 79 73 82 E6 29.99F  
TOMS RIVER* PTSUNNY 86 77 74 SE9 29.97F HX 97  
 

 
PAZ043-044-047-054-055-060>062-066>071-142100-  
EASTERN PENNSYLVANIA  
 
CITY SKY/WX TMP DP RH WIND PRES REMARKS
 
PHILADELPHIA CLOUDY 90 73 57 SW9 29.97S THUNDER HX 98  
NORTH PHILA CLOUDY 82 70 66 NW12G25 30.01R THUNDER  
BLUE BELL* LGT RAIN 72 71 96 NW5 30.03R  
DOYLESTOWN LGT RAIN 81 68 64 NW6 30.01R  
QUAKERTOWN* MOSUNNY 77 73 88 VRB6 30.02S  
PERKASIE* PTSUNNY 73 73 100 CALM 30.02S  
LANCASTER PTSUNNY 88 73 61 E12 29.97S HX 95  
COATESVILLE PTSUNNY 73 73 100 W5 30.02F  
WEST CHESTER RAIN 73 70 88 NW5 30.01S  
READING MOSUNNY 85 71 63 SE8 29.98S HX 90  
ALLENTOWN MOSUNNY 87 73 62 S9 29.98S HX 94  
QN CITY/ALNTWN MOSUNNY 84 68 58 S10 30.00S  
MOUNT POCONO N/A 84 62 47 W12G18 30.06F  
HAZLETON MOSUNNY 86 64 48 W5 30.07S  
LEHIGHTON MOSUNNY 90 63 40 CALM 29.98S HX 90  
WILKES BARRE MOSUNNY 89 68 49 W3 29.98F HX 93  
 

 
DEZALL-MDZ008-012-015-019-020-142100-  
DELAWARE AND EASTERN MARYLAND  
 
CITY SKY/WX TMP DP RH WIND PRES REMARKS
 
WILMINGTON MOSUNNY 89 72 56 SW8 29.97F HX 96  
DOVER MOSUNNY 92 72 51 S9 29.96F HX 100  
CHESWOLD MOSUNNY 93 73 52 VRB7 29.97S HX 102  
GEORGETOWN MOSUNNY 92 73 53 S8 29.97F HX 100  
EASTON MOSUNNY 90 70 51 S13 29.98F HX 95  
STEVENSVILLE TSTM 81 66 58 SW22G36 30.00R  
PATUXENT MOSUNNY 92 77 61 SE9 29.98F HX 105  
OCEAN CITY NOT AVBL  
WALLOPS ISLAND SUNNY 88 77 69 S13 30.01F HX 100  
CAMBRIDGE SUNNY 90 72 55 VRB7G15 29.98F HX 96  
SALISBURY PTSUNNY 89 76 65 S9 29.99F HX 100  
 

 
PAZ001-021-NYZ056-072-MDZ011-DCZ001-142100-  
OTHER NEARBY LOCATIONS  
 
CITY SKY/WX TMP DP RH WIND PRES REMARKS
 
HARRISBURG MOSUNNY 96 64 34 NW6 29.94F HX 98  
STATE COLLEGE MOSUNNY 90 57 33 SW10 30.01F  
WILLIAMSPORT MOSUNNY 94 61 33 W6 29.94F HX 94  
BINGHAMTON MOSUNNY 84 60 44 W6 30.02F  
NEW YORK CITY PTSUNNY 84 64 50 MISG 30.00F  
BALTIMORE MOSUNNY 91 69 48 SE13G23 29.96F HX 96  
WASHINGTON DC MOSUNNY 98 67 36 VRB5G18 29.95F HX 102  
 

 
 
 
CLICK HERE TO GO TO PREVIOUS BULLETINS.

The Nexlab PA Page
The Nexlab NJ Page
The Nexlab DE Page
The Nexlab MD Page Main Text Page